Time,TemperatureF,DewpointF,PressureIn,WindDirection,WindDirectionDegrees,WindSpeedMPH,WindSpeedGustMPH,Humidity,HourlyPrecipIn,Conditions,Clouds,dailyrainin,SoftwareType,DateUTC
2013-04-30 00:02:00,69.0,67.0,29.94,ESE,109,0.0,2.0,93,0.00,,,0.32,,2013-04-30 04:02:00,
2013-04-30 00:12:00,69.0,67.0,29.94,ESE,109,0.0,2.0,93,0.00,,,0.32,,2013-04-30 04:12:00,
2013-04-30 00:22:00,69.0,67.0,29.94,ESE,109,0.0,2.0,93,0.00,,,0.32,,2013-04-30 04:22:00,
2013-04-30 00:32:00,69.0,67.0,29.95,ESE,109,0.0,0.0,92,0.00,,,0.32,,2013-04-30 04:32:00,
2013-04-30 00:42:00,69.0,67.0,29.95,ESE,109,0.0,0.0,92,0.00,,,0.32,,2013-04-30 04:42:00,
2013-04-30 00:52:00,69.0,67.0,29.95,ESE,109,0.0,0.0,92,0.00,,,0.32,,2013-04-30 04:52:00,
2013-04-30 01:02:00,69.0,67.0,29.95,ESE,109,0.0,0.0,92,0.00,,,0.32,,2013-04-30 05:02:00,
2013-04-30 01:12:00,69.0,67.0,29.95,ESE,109,0.0,0.0,92,0.00,,,0.32,,2013-04-30 05:12:00,
2013-04-30 01:22:00,68.0,66.0,29.95,ESE,109,0.0,0.0,92,0.00,,,0.32,,2013-04-30 05:22:00,
2013-04-30 01:31:00,68.0,66.0,29.95,ESE,109,0.0,0.0,92,0.00,,,0.32,,2013-04-30 05:31:00,
2013-04-30 01:42:00,68.0,66.0,29.95,ESE,109,0.0,0.0,92,0.00,,,0.32,,2013-04-30 05:42:00,
2013-04-30 01:51:00,68.0,66.0,29.94,ESE,109,0.0,0.0,92,0.00,,,0.32,,2013-04-30 05:51:00,
2013-04-30 02:02:00,68.0,66.0,29.94,ESE,109,0.0,0.0,92,0.00,,,0.32,,2013-04-30 06:02:00,
2013-04-30 02:12:00,67.0,65.0,29.93,ESE,109,0.0,0.0,92,0.00,,,0.32,,2013-04-30 06:12:00,
2013-04-30 02:21:00,67.0,65.0,29.93,ESE,109,0.0,0.0,92,0.00,,,0.32,,2013-04-30 06:21:00,
2013-04-30 02:32:00,67.0,65.0,29.93,ESE,109,0.0,0.0,92,0.00,,,0.32,,2013-04-30 06:32:00,
2013-04-30 02:42:00,67.0,65.0,29.93,ESE,109,0.0,0.0,92,0.00,,,0.32,,2013-04-30 06:42:00,
2013-04-30 02:52:00,67.0,65.0,29.92,ESE,109,0.0,0.0,93,0.00,,,0.32,,2013-04-30 06:52:00,
2013-04-30 03:01:00,66.0,64.0,29.91,ESE,109,0.0,0.0,93,0.00,,,0.32,,2013-04-30 07:01:00,
2013-04-30 03:11:00,66.0,64.0,29.91,ESE,109,0.0,0.0,93,0.00,,,0.32,,2013-04-30 07:11:00,
2013-04-30 03:21:00,66.0,64.0,29.91,ESE,109,0.0,0.0,93,0.00,,,0.32,,2013-04-30 07:21:00,
2013-04-30 03:32:00,66.0,64.0,29.91,ESE,109,0.0,0.0,93,0.00,,,0.32,,2013-04-30 07:32:00,
2013-04-30 03:42:00,66.0,64.0,29.91,ESE,109,0.0,0.0,93,0.00,,,0.32,,2013-04-30 07:42:00,
2013-04-30 03:52:00,66.0,64.0,29.91,ESE,109,0.0,0.0,93,0.00,,,0.32,,2013-04-30 07:52:00,
2013-04-30 04:02:00,66.0,64.0,29.91,ESE,109,0.0,0.0,93,0.00,,,0.32,,2013-04-30 08:02:00,
2013-04-30 04:11:00,66.0,64.0,29.91,ESE,109,0.0,0.0,93,0.00,,,0.32,,2013-04-30 08:11:00,
2013-04-30 04:22:00,66.0,64.0,29.91,ESE,109,0.0,0.0,93,0.00,,,0.32,,2013-04-30 08:22:00,
2013-04-30 04:32:00,66.0,64.0,29.91,ESE,109,0.0,0.0,93,0.00,,,0.32,,2013-04-30 08:32:00,
2013-04-30 04:42:00,66.0,64.0,29.91,ESE,109,0.0,0.0,93,0.00,,,0.32,,2013-04-30 08:42:00,
2013-04-30 04:52:00,66.0,64.0,29.91,ESE,109,0.0,0.0,93,0.00,,,0.32,,2013-04-30 08:52:00,
2013-04-30 05:01:00,66.0,64.0,29.91,ESE,109,0.0,0.0,93,0.00,,,0.32,,2013-04-30 09:01:00,
2013-04-30 05:11:00,66.0,64.0,29.91,ESE,109,0.0,0.0,93,0.00,,,0.32,,2013-04-30 09:11:00,
2013-04-30 05:22:00,66.0,64.0,29.91,ESE,109,0.0,0.0,93,0.00,,,0.32,,2013-04-30 09:22:00,
2013-04-30 05:33:00,66.0,64.0,29.91,ESE,109,0.0,0.0,94,0.00,,,0.32,,2013-04-30 09:33:00,
2013-04-30 05:43:00,66.0,64.0,29.91,ESE,109,0.0,0.0,94,0.00,,,0.32,,2013-04-30 09:43:00,
2013-04-30 05:52:00,66.0,64.0,29.91,ESE,109,0.0,0.0,94,0.00,,,0.32,,2013-04-30 09:52:00,
2013-04-30 06:03:00,66.0,64.0,29.91,ESE,109,0.0,0.0,94,0.00,,,0.32,,2013-04-30 10:03:00,
2013-04-30 06:12:00,66.0,64.0,29.91,ESE,109,0.0,0.0,94,0.00,,,0.32,,2013-04-30 10:12:00,
2013-04-30 06:22:00,65.0,63.0,29.92,ESE,109,0.0,0.0,94,0.00,,,0.32,,2013-04-30 10:22:00,
2013-04-30 06:32:00,65.0,63.0,29.92,ESE,109,0.0,0.0,94,0.00,,,0.32,,2013-04-30 10:32:00,
2013-04-30 06:41:00,65.0,63.0,29.92,ESE,109,0.0,0.0,94,0.00,,,0.32,,2013-04-30 10:41:00,
2013-04-30 07:02:00,65.0,63.0,29.93,ESE,109,0.0,0.0,94,0.00,,,0.32,,2013-04-30 11:02:00,
2013-04-30 07:11:00,65.0,63.0,29.93,ESE,109,0.0,0.0,94,0.00,,,0.32,,2013-04-30 11:11:00,
2013-04-30 07:21:00,65.0,63.0,29.94,ESE,109,0.0,0.0,94,0.00,,,0.32,,2013-04-30 11:21:00,
2013-04-30 07:32:00,65.0,63.0,29.94,ESE,109,0.0,0.0,94,0.00,,,0.32,,2013-04-30 11:32:00,
2013-04-30 07:42:00,65.0,63.0,29.94,ESE,109,0.0,0.0,94,0.00,,,0.32,,2013-04-30 11:42:00,
2013-04-30 07:51:00,67.0,66.0,29.94,ESE,109,0.0,0.0,95,0.00,,,0.32,,2013-04-30 11:51:00,
2013-04-30 08:01:00,67.0,66.0,29.94,ESE,109,0.0,0.0,95,0.00,,,0.32,,2013-04-30 12:01:00,
2013-04-30 08:11:00,67.0,66.0,29.94,ESE,109,0.0,0.0,95,0.00,,,0.32,,2013-04-30 12:11:00,
2013-04-30 08:21:00,71.0,69.0,29.95,ESE,109,0.0,0.0,95,0.00,,,0.32,,2013-04-30 12:21:00,
2013-04-30 08:31:00,71.0,69.0,29.96,East,96,1.0,2.0,95,0.00,,,0.32,,2013-04-30 12:31:00,
2013-04-30 08:41:00,71.0,69.0,29.96,East,96,1.0,2.0,95,0.00,,,0.32,,2013-04-30 12:41:00,
2013-04-30 08:51:00,72.0,70.0,29.96,East,96,0.0,0.0,94,0.00,,,0.32,,2013-04-30 12:51:00,
2013-04-30 09:01:00,72.0,70.0,29.96,East,96,0.0,1.0,94,0.00,,,0.32,,2013-04-30 13:01:00,
2013-04-30 09:11:00,72.0,70.0,29.96,East,96,0.0,1.0,94,0.00,,,0.32,,2013-04-30 13:11:00,
2013-04-30 09:21:00,72.0,70.0,29.96,East,96,0.0,1.0,94,0.00,,,0.32,,2013-04-30 13:21:00,
2013-04-30 09:31:00,72.0,70.0,29.96,East,96,0.0,1.0,94,0.00,,,0.32,,2013-04-30 13:31:00,
2013-04-30 09:41:00,72.0,70.0,29.96,East,96,0.0,1.0,94,0.00,,,0.32,,2013-04-30 13:41:00,
2013-04-30 09:52:00,77.0,73.0,29.96,SSE,148,0.0,1.0,88,0.00,,,0.32,,2013-04-30 13:52:00,
2013-04-30 10:02:00,77.0,73.0,29.97,South,171,0.0,3.0,87,0.00,,,0.32,,2013-04-30 14:02:00,
2013-04-30 10:11:00,79.0,73.0,29.97,WNW,302,0.0,3.0,83,0.00,,,0.32,,2013-04-30 14:11:00,
2013-04-30 10:21:00,79.0,73.0,29.97,WNW,302,0.0,3.0,83,0.00,,,0.32,,2013-04-30 14:21:00,
2013-04-30 10:31:00,79.0,73.0,29.97,WNW,302,0.0,3.0,83,0.00,,,0.32,,2013-04-30 14:31:00,
2013-04-30 10:41:00,79.0,73.0,29.97,WNW,302,0.0,3.0,83,0.00,,,0.32,,2013-04-30 14:41:00,
2013-04-30 10:52:00,80.0,74.0,29.96,East,100,0.0,3.0,82,0.00,,,0.32,,2013-04-30 14:52:00,
2013-04-30 11:01:00,80.0,74.0,29.96,East,100,0.0,3.0,82,0.00,,,0.32,,2013-04-30 15:01:00,
2013-04-30 11:11:00,80.0,74.0,29.96,East,100,0.0,3.0,82,0.00,,,0.32,,2013-04-30 15:11:00,
2013-04-30 11:21:00,82.0,75.0,29.96,SW,225,1.0,4.0,80,0.00,,,0.32,,2013-04-30 15:21:00,
2013-04-30 11:32:00,82.0,74.0,29.96,SW,217,3.0,4.0,76,0.00,,,0.32,,2013-04-30 15:32:00,
2013-04-30 11:42:00,82.0,74.0,29.96,SW,217,3.0,4.0,76,0.00,,,0.32,,2013-04-30 15:42:00,
2013-04-30 11:52:00,82.0,74.0,29.96,SW,217,3.0,4.0,76,0.00,,,0.32,,2013-04-30 15:52:00,
2013-04-30 12:02:00,85.0,74.0,29.95,SE,144,0.0,6.0,70,0.00,,,0.32,,2013-04-30 16:02:00,
2013-04-30 12:12:00,85.0,74.0,29.95,SE,144,0.0,6.0,70,0.00,,,0.32,,2013-04-30 16:12:00,
2013-04-30 12:23:00,85.0,73.0,29.94,SW,227,1.0,3.0,67,0.00,,,0.32,,2013-04-30 16:23:00,
2013-04-30 12:33:00,87.0,75.0,29.94,SW,229,0.0,7.0,68,0.00,,,0.32,,2013-04-30 16:33:00,
2013-04-30 12:42:00,87.0,75.0,29.94,SW,229,0.0,7.0,68,0.00,,,0.32,,2013-04-30 16:42:00,
2013-04-30 12:52:00,87.0,74.0,29.93,SSE,154,2.0,2.0,65,0.00,,,0.32,,2013-04-30 16:52:00,
2013-04-30 13:02:00,87.0,73.0,29.93,WSW,242,0.0,6.0,63,0.00,,,0.32,,2013-04-30 17:02:00,
2013-04-30 13:12:00,87.0,73.0,29.93,WSW,242,0.0,6.0,63,0.00,,,0.32,,2013-04-30 17:12:00,
2013-04-30 13:22:00,88.0,72.0,29.93,West,276,3.0,8.0,59,0.00,,,0.32,,2013-04-30 17:22:00,
2013-04-30 13:32:00,88.0,72.0,29.93,West,276,3.0,8.0,59,0.00,,,0.32,,2013-04-30 17:32:00,
2013-04-30 13:42:00,88.0,72.0,29.93,West,276,3.0,8.0,59,0.00,,,0.32,,2013-04-30 17:42:00,
2013-04-30 13:52:00,88.0,72.0,29.92,SSE,157,1.0,3.0,59,0.00,,,0.32,,2013-04-30 17:52:00,
2013-04-30 14:01:00,86.0,72.0,29.92,WSW,256,0.0,3.0,63,0.00,,,0.32,,2013-04-30 18:01:00,
2013-04-30 14:11:00,86.0,72.0,29.91,SE,140,0.0,4.0,64,0.00,,,0.32,,2013-04-30 18:11:00,
2013-04-30 14:22:00,86.0,72.0,29.91,SE,140,0.0,4.0,64,0.00,,,0.32,,2013-04-30 18:22:00,
2013-04-30 14:32:00,86.0,72.0,29.91,SE,140,0.0,4.0,64,0.00,,,0.32,,2013-04-30 18:32:00,
2013-04-30 14:42:00,88.0,73.0,29.91,West,271,3.0,8.0,62,0.00,,,0.32,,2013-04-30 18:42:00,
2013-04-30 14:52:00,88.0,73.0,29.91,West,271,3.0,8.0,62,0.00,,,0.32,,2013-04-30 18:52:00,
2013-04-30 15:01:00,88.0,74.0,29.90,ESE,103,0.0,8.0,63,0.00,,,0.32,,2013-04-30 19:01:00,
2013-04-30 15:11:00,88.0,74.0,29.90,WSW,255,1.0,8.0,64,0.00,,,0.32,,2013-04-30 19:11:00,
2013-04-30 15:22:00,88.0,74.0,29.90,WSW,255,1.0,8.0,64,0.00,,,0.32,,2013-04-30 19:22:00,
2013-04-30 15:32:00,88.0,74.0,29.90,West,273,3.0,8.0,63,0.00,,,0.32,,2013-04-30 19:32:00,
2013-04-30 15:42:00,88.0,74.0,29.90,West,273,3.0,8.0,63,0.00,,,0.32,,2013-04-30 19:42:00,
2013-04-30 15:52:00,88.0,74.0,29.90,West,273,3.0,8.0,63,0.00,,,0.32,,2013-04-30 19:52:00,
2013-04-30 16:02:00,87.0,73.0,29.90,SW,229,1.0,10.0,64,0.00,,,0.32,,2013-04-30 20:02:00,
2013-04-30 16:11:00,87.0,73.0,29.90,SW,229,1.0,10.0,64,0.00,,,0.32,,2013-04-30 20:11:00,
2013-04-30 16:22:00,88.0,75.0,29.89,West,261,2.0,3.0,65,0.00,,,0.32,,2013-04-30 20:22:00,
2013-04-30 16:32:00,88.0,74.0,29.89,WSW,248,7.0,10.0,63,0.00,,,0.32,,2013-04-30 20:32:00,
2013-04-30 16:42:00,88.0,74.0,29.89,WSW,248,7.0,10.0,63,0.00,,,0.32,,2013-04-30 20:42:00,
2013-04-30 16:52:00,87.0,73.0,29.90,South,181,0.0,1.0,64,0.00,,,0.02,,2013-04-30 20:52:00,
2013-04-30 17:02:00,87.0,73.0,29.90,South,181,0.0,1.0,64,0.00,,,0.02,,2013-04-30 21:02:00,
2013-04-30 17:11:00,86.0,73.0,29.90,SSE,155,0.0,2.0,65,0.00,,,0.00,,2013-04-30 21:11:00,
2013-04-30 17:22:00,86.0,73.0,29.90,SSE,155,0.0,2.0,65,0.00,,,0.00,,2013-04-30 21:22:00,
2013-04-30 17:32:00,86.0,73.0,29.90,SSE,155,0.0,2.0,65,0.00,,,0.00,,2013-04-30 21:32:00,
2013-04-30 17:42:00,86.0,73.0,29.90,SSE,155,0.0,2.0,65,0.00,,,0.00,,2013-04-30 21:42:00,
2013-04-30 17:53:00,82.0,72.0,29.91,East,92,0.0,2.0,71,0.00,,,0.00,,2013-04-30 21:53:00,
2013-04-30 18:02:00,82.0,72.0,29.91,East,92,0.0,2.0,71,0.00,,,0.00,,2013-04-30 22:02:00,
2013-04-30 18:12:00,82.0,72.0,29.91,East,92,0.0,2.0,71,0.00,,,0.00,,2013-04-30 22:12:00,
2013-04-30 18:23:00,82.0,72.0,29.91,East,92,0.0,2.0,71,0.00,,,0.00,,2013-04-30 22:23:00,
2013-04-30 18:32:00,80.0,70.0,29.91,NE,53,1.0,3.0,72,0.00,,,0.00,,2013-04-30 22:32:00,
2013-04-30 18:42:00,80.0,70.0,29.91,NE,53,1.0,3.0,72,0.00,,,0.00,,2013-04-30 22:42:00,
2013-04-30 18:53:00,79.0,70.0,29.92,ENE,65,0.0,3.0,74,0.00,,,0.00,,2013-04-30 22:53:00,
2013-04-30 19:12:00,79.0,70.0,29.92,ENE,65,0.0,3.0,74,0.00,,,0.00,,2013-04-30 23:12:00,
2013-04-30 19:22:00,78.0,71.0,29.93,NNE,31,3.0,5.0,78,0.00,,,0.00,,2013-04-30 23:22:00,
2013-04-30 19:32:00,77.0,69.0,29.93,ENE,68,2.0,6.0,77,0.00,,,0.00,,2013-04-30 23:32:00,
2013-04-30 19:42:00,77.0,69.0,29.93,ENE,68,2.0,6.0,77,0.00,,,0.00,,2013-04-30 23:42:00,
2013-04-30 19:52:00,77.0,70.0,29.93,ESE,123,0.0,3.0,79,0.00,,,0.00,,2013-04-30 23:52:00,
2013-04-30 20:02:00,77.0,70.0,29.93,ESE,123,0.0,3.0,79,0.00,,,0.00,,2013-05-01 00:02:00,
2013-04-30 20:11:00,77.0,70.0,29.93,ESE,123,0.0,3.0,79,0.00,,,0.00,,2013-05-01 00:11:00,
2013-04-30 20:22:00,76.0,70.0,29.94,SSE,148,0.0,0.0,82,0.00,,,0.00,,2013-05-01 00:22:00,
2013-04-30 20:32:00,76.0,70.0,29.94,SSE,148,0.0,0.0,82,0.00,,,0.00,,2013-05-01 00:32:00,
2013-04-30 20:42:00,76.0,70.0,29.94,SSE,148,0.0,0.0,82,0.00,,,0.00,,2013-05-01 00:42:00,
2013-04-30 20:52:00,74.0,69.0,29.94,SSE,148,0.0,0.0,84,0.00,,,0.00,,2013-05-01 00:52:00,
2013-04-30 21:01:00,74.0,69.0,29.94,SSE,148,0.0,0.0,84,0.00,,,0.00,,2013-05-01 01:01:00,
2013-04-30 21:11:00,74.0,69.0,29.94,SSE,148,0.0,0.0,84,0.00,,,0.00,,2013-05-01 01:11:00,
2013-04-30 21:21:00,73.0,69.0,29.94,SSE,148,0.0,0.0,86,0.00,,,0.00,,2013-05-01 01:21:00,
2013-04-30 21:32:00,72.0,68.0,29.95,SSE,148,0.0,0.0,86,0.00,,,0.00,,2013-05-01 01:32:00,
2013-04-30 21:42:00,72.0,68.0,29.95,SSE,148,0.0,0.0,86,0.00,,,0.00,,2013-05-01 01:42:00,
2013-04-30 21:52:00,72.0,68.0,29.95,SSE,148,0.0,0.0,86,0.00,,,0.00,,2013-05-01 01:52:00,
2013-04-30 22:02:00,71.0,67.0,29.95,SSE,148,0.0,0.0,87,0.00,,,0.00,,2013-05-01 02:02:00,
2013-04-30 22:11:00,70.0,66.0,29.96,SSE,148,0.0,0.0,87,0.00,,,0.00,,2013-05-01 02:11:00,
2013-04-30 22:21:00,70.0,66.0,29.96,SSE,148,0.0,0.0,87,0.00,,,0.00,,2013-05-01 02:21:00,
2013-04-30 22:32:00,70.0,66.0,29.96,SSE,148,0.0,1.0,87,0.00,,,0.00,,2013-05-01 02:32:00,
2013-04-30 22:42:00,70.0,66.0,29.96,SSE,148,0.0,1.0,87,0.00,,,0.00,,2013-05-01 02:42:00,
2013-04-30 22:52:00,70.0,66.0,29.96,SSE,148,0.0,1.0,87,0.00,,,0.00,,2013-05-01 02:52:00,
2013-04-30 23:02:00,70.0,66.0,29.97,SSE,148,0.0,0.0,88,0.00,,,0.00,,2013-05-01 03:02:00,
2013-04-30 23:11:00,70.0,66.0,29.97,SSE,148,0.0,0.0,88,0.00,,,0.00,,2013-05-01 03:11:00,
2013-04-30 23:21:00,69.0,65.0,29.97,SSE,148,0.0,0.0,88,0.00,,,0.00,,2013-05-01 03:21:00,
2013-04-30 23:33:00,69.0,65.0,29.97,SSE,148,0.0,0.0,88,0.00,,,0.00,,2013-05-01 03:33:00,
2013-04-30 23:43:00,69.0,65.0,29.97,SSE,148,0.0,0.0,88,0.00,,,0.00,,2013-05-01 03:43:00,
2013-04-30 23:53:00,68.0,65.0,29.97,SSE,148,0.0,0.0,90,0.00,,,0.00,,2013-05-01 03:53:00,